Weather History for Meridian, MS

Change the Weather History Date:

Tuesday, November 20, 2012

  Actual Average Record
Temperature  
Mean Temperature 54 °F 53 °F  
Max Temperature 70 °F 66 °F 83 °F (1973)
Min Temperature 38 °F 40 °F 20 °F (1914)
Degree Days  
Heating Degree Days 11 12  
Month to date heating degree days 249 190  
Since 1 July heating degree days 370 314  
Cooling Degree Days 0 0  
Month to date cooling degree days 4 13  
Year to date cooling degree days 2177 2026  
Growing Degree Days 6 (Base 50)    
Moisture  
Dew Point 44 °F    
Average Humidity 68    
Maximum Humidity 100    
Minimum Humidity 35    
Precipitation  
Precipitation T in 0.18 in 3.50 in (1991)
Month to date precipitation 1.15 3.14  
Year to date precipitation 53.10 49.29  
Sea Level Pressure  
Sea Level Pressure 30.17 in    
Wind  
Wind Speed 1 mph (North)    
Max Wind Speed 9 mph    
Max Gust Speed 13 mph    
Visibility 10 miles    
Events      
T = Trace of Precipitation, MM = Missing Value Source: NWS Daily Summary

Daily Weather History Graph

Daily Weather History Graph

Search for Another Location

Airport:

Trip Planner

Search our weather history database for the weather conditions in past years. The results will help you decide how hot, cold, wet, or windy it might be!

Date:

Astronomy

Nov. 20, 2012 Rise Set
Actual Time 6:29 AM CST 4:52 PM CST
Civil Twilight 6:02 AM CST 5:18 PM CST
Nautical Twilight 5:33 AM CST 5:48 PM CST
Astronomical Twilight 5:03 AM CST 6:17 PM CST
Moon 12:15 PM CST (11/20) No Moon Set
Length of Visible Light 11h 15m
Length of Day
10h 22m
First Quarter, 51% of the Moon is Illuminated
Nov 20
First Quarter
Nov 28
Full
Dec 6
Last Quarter
Dec 13
New
Dec 19
First Quarter

Hourly Weather History & Observations

Time (CST) Temp. Windchill Dew Point Humidity Pressure Visibility Wind Dir Wind Speed Gust Speed Precip Events Conditions
12:58 AM 41.0 °F - 39.9 °F 96% 30.19 in 9.0 mi Calm Calm - N/A   Scattered Clouds
1:58 AM 43.0 °F - 41.0 °F 93% 30.19 in 10.0 mi Calm Calm - N/A   Partly Cloudy
2:58 AM 43.0 °F - 42.1 °F 97% 30.19 in 9.0 mi Calm Calm - N/A   Clear
3:58 AM 44.1 °F - 43.0 °F 96% 30.18 in 7.0 mi Calm Calm - 0.00 in   Mostly Cloudy
4:58 AM 44.1 °F - 44.1 °F 100% 30.19 in 9.0 mi Calm Calm - N/A   Overcast
5:58 AM 46.0 °F - 44.1 °F 93% 30.21 in 10.0 mi Calm Calm - 0.00 in   Overcast
6:58 AM 45.0 °F - 45.0 °F 100% 30.22 in 5.0 mi Calm Calm - N/A   Overcast
7:58 AM 48.9 °F - 46.0 °F 90% 30.22 in 10.0 mi Calm Calm - N/A   Mostly Cloudy
8:58 AM 54.0 °F - 48.0 °F 80% 30.22 in 10.0 mi Calm Calm - N/A   Scattered Clouds
9:58 AM 61.0 °F - 46.0 °F 58% 30.23 in 10.0 mi Variable 3.5 mph - N/A   Mostly Cloudy
10:58 AM 66.9 °F - 45.0 °F 45% 30.21 in 10.0 mi NNE 6.9 mph - N/A   Partly Cloudy
11:58 AM 66.0 °F - 44.1 °F 45% 30.17 in 10.0 mi North 3.5 mph - N/A   Clear
12:58 PM 66.9 °F - 46.0 °F 47% 30.14 in 10.0 mi North 4.6 mph - N/A   Scattered Clouds
1:58 PM 68.0 °F - 41.0 °F 37% 30.13 in 10.0 mi NNW 6.9 mph - N/A   Scattered Clouds
2:58 PM 68.0 °F - 39.0 °F 35% 30.13 in 10.0 mi Variable 4.6 mph - N/A   Mostly Cloudy
3:58 PM 66.0 °F - 41.0 °F 40% 30.13 in 10.0 mi Calm Calm - N/A   Scattered Clouds
4:58 PM 57.0 °F - 48.9 °F 74% 30.12 in 10.0 mi Calm Calm - N/A   Clear
5:58 PM 52.0 °F - 46.9 °F 83% 30.13 in 10.0 mi Calm Calm - N/A   Clear
6:58 PM 48.9 °F - 46.0 °F 90% 30.15 in 10.0 mi Calm Calm - N/A   Clear
7:58 PM 46.9 °F - 45.0 °F 93% 30.15 in 10.0 mi Calm Calm - N/A   Clear
8:58 PM 45.0 °F - 44.1 °F 97% 30.17 in 10.0 mi Calm Calm - N/A   Clear
9:58 PM 45.0 °F - 43.0 °F 93% 30.17 in 10.0 mi Calm Calm - N/A   Clear
10:58 PM 44.1 °F - 42.1 °F 93% 30.17 in 10.0 mi Calm Calm - N/A   Clear
11:58 PM 42.1 °F 40.2 °F 41.0 °F 96% 30.16 in 10.0 mi SSW 3.5 mph - N/A   Clear